User: anonymous   Login
Location: Unspecified
(0.0000°N, 0.0000°E)
Time: 06:08:38
(UTC+00:00)
Language:

Resurs 1-3 - Orbit

View from above orbital plane
View from above orbital plane
View from above satellite
View from above satellite

Ground track
Ground track

The orbit data is extracted from the following two-line orbital elements,

1 23342U 94074A   17296.73455251  .00000087  00000-0  18865-4 0  9992
2 23342  98.0649 335.4922 0001870  80.2022 279.9401 14.79294187236780
Epoch (UTC): 23 October 2017 17:37:45
Eccentricity: 0.0001870
inclination: 98.0649°
perigee height: 630 km
apogee height: 633 km
right ascension of ascending node: 335.4922°
argument of perigee: 80.2022°
revolutions per day: 14.79294187
mean anomaly at epoch: 279.9401°
orbit number at epoch: 23678

The dashed part of the orbit path shows where the satellite is in the earth's shadow,  

DLR